Location: Eaton Estates
(41.3089°N, 82.0057°W)
Time: 18:38:44
(UTC+00:00)

O/OREOS (USA 219) - Pass Details

Date: 28 March 2023
Orbit: 621 x 646 km, 72.0° (Epoch: 22 May)

Event Time Altitude Azimuth Distance (km) Brightness Sun altitude
Rises 10:29:12 0° 194° (SSW) 2,941 ? -9.9°
Reaches altitude 10° 10:31:28 10° 192° (SSW) 2,034 ? -9.5°
Maximum altitude 10:36:01 68° 109° (ESE) 694 ? -8.7°
Drops below altitude 10° 10:40:33 10° 27° (NNE) 2,037 ? -7.8°
Sets 10:42:50 0° 25° (NNE) 2,946 ? -7.4°
